Terminal Aerodrome Forecast
Issued by NWS

Home | Current Version | Previous Version | Text Only | Print | Product List | Glossary On
Versions: 1 2 3 4 5 6 7 8 9 10 11 12 13 14 15 16 17 18 19 20 21 22 23 24 25 26 27 28 29 30 31 32 33 34 35 36
000
FTPQ31 PGUM 302100 RRA
TAFGRO
TAF
PGRO 302102Z 3021/0118 20020G28KT P6SM VCSH SCT018 BKN060 BKN100
     FM011200 19014G22KT P6SM VCSH SCT020 SCT060 BKN100=

USA.gov is the U.S. government's official web portal to all federal, state and local government web resources and services.